| time (UTC) | temp C | wind direction | speed KPH | gust KPH | rain 1hr cm | rain 24hr cm | rain mn cm | humidity % | barometer mb |
| 20260504141015 | 14 | 44 | 8.0 | 24.1 | 0.00 | 0.00 | 0.00 | 40 | 1011.5 |
| 20260504140516 | 13 | 294 | 11.3 | 22.5 | 0.00 | 0.00 | 0.00 | 40 | 1011.5 |
| 20260504130513 | 12 | 243 | 4.8 | 20.9 | 0.00 | 0.00 | 0.00 | 43 | 1012.1 |
| 20260504110516 | 8 | 194 | 0.0 | 11.3 | 0.00 | 0.00 | 0.00 | 55 | 1012.1 |
| 20260504100517 | 7 | 278 | 1.6 | 6.4 | 0.00 | 0.00 | 0.00 | 54 | 1012.1 |
| 20260504081532 | 8 | 177 | 1.6 | 11.3 | 0.00 | 0.00 | 0.00 | 53 | 1012.2 |
| 20260504081015 | 8 | 0 | 1.6 | 11.3 | 0.00 | 0.00 | 0.00 | 53 | 1012.1 |
| 20260504080514 | 8 | 0 | 1.6 | 11.3 | 0.00 | 0.00 | 0.00 | 53 | 1012.1 |
| 20260504050515 | 9 | 352 | 3.2 | 19.3 | 0.00 | 0.00 | 0.00 | 49 | 1011.9 |
| 20260504045515 | 9 | 342 | 4.8 | 19.3 | 0.00 | 0.00 | 0.00 | 49 | 1012.0 |
| 20260504045015 | 9 | 288 | 4.8 | 12.9 | 0.00 | 0.00 | 0.00 | 49 | 1011.9 |
| 20260504044537 | 9 | 132 | 1.6 | 17.7 | 0.00 | 0.00 | 0.00 | 49 | 1011.9 |
| 20260504044017 | 9 | 256 | 4.8 | 17.7 | 0.00 | 0.00 | 0.00 | 49 | 1011.7 |
| 20260504043515 | 10 | 298 | 3.2 | 16.1 | 0.00 | 0.00 | 0.00 | 49 | 1011.7 |
| 20260504043041 | 10 | 15 | 6.4 | 14.5 | 0.00 | 0.00 | 0.00 | 47 | 1011.7 |
| 20260504042516 | 10 | 320 | 4.8 | 14.5 | 0.00 | 0.00 | 0.00 | 47 | 1011.8 |
| 20260504042017 | 10 | 323 | 6.4 | 14.5 | 0.00 | 0.00 | 0.00 | 47 | 1011.7 |
| 20260504041532 | 10 | 342 | 4.8 | 14.5 | 0.00 | 0.00 | 0.00 | 47 | 1011.7 |
| 20260504041015 | 10 | 284 | 6.4 | 16.1 | 0.00 | 0.00 | 0.00 | 48 | 1011.7 |
| 20260504040515 | 10 | 270 | 4.8 | 16.1 | 0.00 | 0.00 | 0.00 | 48 | 1011.7 |
| 20260504040036 | 9 | 314 | 6.4 | 16.1 | 0.00 | 0.00 | 0.00 | 48 | 1011.6 |
| 20260504035516 | 9 | 352 | 4.8 | 16.1 | 0.00 | 0.00 | 0.00 | 47 | 1011.6 |
| 20260504035015 | 9 | 340 | 4.8 | 12.9 | 0.00 | 0.00 | 0.00 | 48 | 1011.5 |
| 20260504034539 | 9 | 134 | 3.2 | 12.9 | 0.00 | 0.00 | 0.00 | 48 | 1011.6 |
| 20260504034017 | 9 | 291 | 6.4 | 11.3 | 0.00 | 0.00 | 0.00 | 48 | 1011.5 |
| 20260504033517 | 9 | 275 | 1.6 | 9.7 | 0.00 | 0.00 | 0.00 | 49 | 1011.6 |
| 20260504033030 | 9 | 290 | 1.6 | 11.3 | 0.00 | 0.00 | 0.00 | 48 | 1011.5 |
| 20260504032513 | 9 | 281 | 1.6 | 11.3 | 0.00 | 0.00 | 0.00 | 48 | 1011.6 |
| 20260504032015 | 9 | 0 | 1.6 | 12.9 | 0.00 | 0.00 | 0.00 | 48 | 1011.6 |
| 20260504031530 | 9 | 323 | 3.2 | 12.9 | 0.00 | 0.00 | 0.00 | 48 | 1011.7 |
| 20260504031015 | 9 | 198 | 0.0 | 6.4 | 0.00 | 0.00 | 0.00 | 48 | 1011.7 |
| 20260504030514 | 8 | 243 | 1.6 | 8.0 | 0.00 | 0.00 | 0.00 | 48 | 1011.7 |
| 20260504030030 | 8 | 0 | 1.6 | 8.0 | 0.00 | 0.00 | 0.00 | 49 | 1011.6 |
| 20260504025515 | 8 | 197 | 1.6 | 6.4 | 0.00 | 0.00 | 0.00 | 49 | 1011.7 |
| 20260504025015 | 8 | 202 | 1.6 | 9.7 | 0.00 | 0.00 | 0.00 | 49 | 1011.6 |
| 20260504024532 | 8 | 209 | 4.8 | 9.7 | 0.00 | 0.00 | 0.00 | 50 | 1011.6 |
| 20260504024014 | 8 | 202 | 3.2 | 9.7 | 0.00 | 0.00 | 0.00 | 52 | 1011.7 |
| 20260504023514 | 8 | 215 | 4.8 | 9.7 | 0.00 | 0.00 | 0.00 | 53 | 1011.6 |
| 20260504023029 | 8 | 215 | 3.2 | 9.7 | 0.00 | 0.00 | 0.00 | 53 | 1011.6 |
| 20260504022514 | 7 | 214 | 3.2 | 8.0 | 0.00 | 0.00 | 0.00 | 57 | 1011.7 |
| 20260504022014 | 7 | 213 | 1.6 | 6.4 | 0.00 | 0.00 | 0.00 | 56 | 1011.7 |
| 20260504021534 | 7 | 218 | 3.2 | 12.9 | 0.00 | 0.00 | 0.00 | 58 | 1011.7 |
| 20260504021013 | 7 | 186 | 3.2 | 12.9 | 0.00 | 0.00 | 0.00 | 59 | 1011.7 |
| 20260504020515 | 7 | 208 | 3.2 | 6.4 | 0.00 | 0.00 | 0.00 | 64 | 1011.8 |
| 20260504020037 | 6 | 190 | 3.2 | 6.4 | 0.00 | 0.00 | 0.00 | 64 | 1011.7 |
| 20260504015513 | 6 | 188 | 3.2 | 6.4 | 0.00 | 0.00 | 0.00 | 67 | 1011.6 |
| 20260504015015 | 6 | 202 | 3.2 | 6.4 | 0.00 | 0.00 | 0.00 | 66 | 1011.6 |
| 20260504014537 | 6 | 196 | 3.2 | 8.0 | 0.00 | 0.00 | 0.00 | 69 | 1011.5 |
| 20260504014014 | 6 | 192 | 3.2 | 8.0 | 0.00 | 0.00 | 0.00 | 68 | 1011.5 |
| 20260504013517 | 6 | 200 | 4.8 | 6.4 | 0.00 | 0.00 | 0.00 | 67 | 1011.4 |
| 20260504013031 | 6 | 190 | 3.2 | 6.4 | 0.00 | 0.00 | 0.00 | 67 | 1011.3 |
| 20260504012516 | 6 | 196 | 3.2 | 6.4 | 0.00 | 0.00 | 0.00 | 67 | 1011.3 |
| 20260504012015 | 6 | 199 | 4.8 | 6.4 | 0.00 | 0.00 | 0.00 | 67 | 1011.3 |
| 20260504011532 | 6 | 194 | 3.2 | 6.4 | 0.00 | 0.00 | 0.00 | 67 | 1011.4 |
| 20260504011014 | 7 | 196 | 3.2 | 6.4 | 0.00 | 0.00 | 0.00 | 66 | 1011.3 |
| 20260504010516 | 7 | 205 | 3.2 | 8.0 | 0.00 | 0.00 | 0.00 | 64 | 1011.3 |
| 20260504010029 | 7 | 204 | 4.8 | 8.0 | 0.00 | 0.00 | 0.00 | 63 | 1011.4 |
| 20260504005514 | 7 | 187 | 3.2 | 6.4 | 0.00 | 0.00 | 0.00 | 64 | 1011.3 |
| 20260504005012 | 7 | 205 | 4.8 | 6.4 | 0.00 | 0.00 | 0.00 | 64 | 1011.3 |
| 20260504004534 | 7 | 192 | 1.6 | 6.4 | 0.00 | 0.00 | 0.00 | 62 | 1011.3 |
| 20260504004014 | 8 | 186 | 3.2 | 6.4 | 0.00 | 0.00 | 0.00 | 62 | 1011.2 |
| 20260504003516 | 8 | 187 | 3.2 | 6.4 | 0.00 | 0.00 | 0.00 | 62 | 1011.2 |
| 20260504003030 | 8 | 190 | 3.2 | 6.4 | 0.00 | 0.00 | 0.00 | 61 | 1011.2 |
| 20260504002517 | 8 | 182 | 3.2 | 6.4 | 0.00 | 0.00 | 0.00 | 60 | 1011.0 |
| 20260504002017 | 9 | 205 | 3.2 | 6.4 | 0.00 | 0.00 | 0.00 | 56 | 1010.9 |
| 20260504001535 | 10 | 207 | 3.2 | 6.4 | 0.00 | 0.00 | 0.00 | 53 | 1010.9 |
| 20260504001015 | 11 | 236 | 1.6 | 8.0 | 0.00 | 0.00 | 0.00 | 52 | 1010.8 |
| 20260504000514 | 11 | 0 | 1.6 | 16.1 | 0.00 | 0.00 | 0.00 | 46 | 1010.9 |
| 20260504000038 | 11 | 302 | 4.8 | 16.1 | 0.00 | 0.00 | 0.00 | 47 | 1010.8 |
| 20260503235519 | 11 | 333 | 4.8 | 12.9 | 0.00 | 0.00 | 0.00 | 48 | 1010.8 |
| 20260503235016 | 11 | 325 | 4.8 | 12.9 | 0.00 | 0.00 | 0.00 | 48 | 1010.8 |
| 20260503234530 | 12 | 331 | 4.8 | 16.1 | 0.00 | 0.00 | 0.00 | 47 | 1010.7 |
| 20260503234016 | 12 | 337 | 8.0 | 19.3 | 0.00 | 0.00 | 0.00 | 49 | 1010.6 |
| 20260503233516 | 12 | 360 | 11.3 | 19.3 | 0.00 | 0.00 | 0.00 | 50 | 1010.7 |
| 20260503233034 | 12 | 350 | 12.9 | 17.7 | 0.00 | 0.00 | 0.00 | 47 | 1010.6 |
| 20260503232515 | 12 | 342 | 9.7 | 17.7 | 0.00 | 0.00 | 0.00 | 47 | 1010.6 |
| 20260503232015 | 12 | 348 | 11.3 | 17.7 | 0.00 | 0.00 | 0.00 | 45 | 1010.6 |
| 20260503231533 | 12 | 349 | 11.3 | 22.5 | 0.00 | 0.00 | 0.00 | 45 | 1010.7 |
| 20260503231017 | 12 | 17 | 12.9 | 30.6 | 0.00 | 0.00 | 0.00 | 49 | 1010.7 |
| 20260503230519 | 12 | 13 | 16.1 | 30.6 | 0.00 | 0.00 | 0.00 | 48 | 1010.8 |
| 20260503230030 | 12 | 11 | 17.7 | 30.6 | 0.00 | 0.00 | 0.00 | 44 | 1010.7 |
| 20260503225514 | 12 | 11 | 17.7 | 27.4 | 0.00 | 0.00 | 0.00 | 44 | 1010.6 |
| 20260503225020 | 12 | 24 | 14.5 | 29.0 | 0.00 | 0.00 | 0.00 | 48 | 1010.6 |
| 20260503224533 | 12 | 360 | 19.3 | 29.0 | 0.00 | 0.00 | 0.00 | 40 | 1010.6 |
| 20260503224016 | 12 | 19 | 19.3 | 29.0 | 0.00 | 0.00 | 0.00 | 48 | 1010.6 |
| 20260503223516 | 12 | 30 | 17.7 | 27.4 | 0.00 | 0.00 | 0.00 | 46 | 1010.6 |
| 20260503223030 | 12 | 28 | 16.1 | 32.2 | 0.00 | 0.00 | 0.00 | 47 | 1010.6 |
| 20260503222514 | 12 | 11 | 19.3 | 32.2 | 0.00 | 0.00 | 0.00 | 45 | 1010.6 |
| 20260503222013 | 12 | 31 | 22.5 | 32.2 | 0.00 | 0.00 | 0.00 | 43 | 1010.5 |
| 20260503221532 | 12 | 352 | 19.3 | 35.4 | 0.00 | 0.00 | 0.00 | 40 | 1010.6 |
| 20260503221014 | 12 | 9 | 20.9 | 35.4 | 0.00 | 0.00 | 0.00 | 41 | 1010.7 |
| 20260503220518 | 12 | 17 | 22.5 | 35.4 | 0.00 | 0.00 | 0.00 | 42 | 1010.7 |
| 20260503220035 | 12 | 360 | 19.3 | 35.4 | 0.00 | 0.00 | 0.00 | 47 | 1010.8 |
| 20260503215517 | 12 | 5 | 25.7 | 35.4 | 0.00 | 0.00 | 0.00 | 45 | 1010.8 |
| 20260503215016 | 12 | 352 | 22.5 | 33.8 | 0.00 | 0.00 | 0.00 | 41 | 1010.7 |
| 20260503214540 | 12 | 352 | 24.1 | 35.4 | 0.00 | 0.00 | 0.00 | 46 | 1010.7 |
| 20260503214017 | 12 | 5 | 20.9 | 37.0 | 0.00 | 0.00 | 0.00 | 41 | 1010.5 |
| 20260503213517 | 12 | 346 | 27.4 | 41.8 | 0.00 | 0.00 | 0.00 | 41 | 1010.5 |
| 20260503213032 | 12 | 347 | 19.3 | 41.8 | 0.00 | 0.00 | 0.00 | 44 | 1010.3 |
| 20260503212515 | 12 | 348 | 24.1 | 41.8 | 0.00 | 0.00 | 0.00 | 40 | 1010.2 |
| 20260503212017 | 12 | 13 | 22.5 | 33.8 | 0.00 | 0.00 | 0.00 | 41 | 1010.1 |
| 20260503211536 | 12 | 34 | 22.5 | 32.2 | 0.00 | 0.00 | 0.00 | 39 | 1010.0 |
| 20260503211014 | 11 | 360 | 17.7 | 25.7 | 0.00 | 0.00 | 0.00 | 43 | 1010.1 |
| 20260503210514 | 11 | 5 | 17.7 | 29.0 | 0.00 | 0.00 | 0.00 | 41 | 1010.1 |
| 20260503210033 | 11 | 13 | 17.7 | 29.0 | 0.00 | 0.00 | 0.00 | 42 | 1010.1 |
| 20260503205517 | 11 | 50 | 20.9 | 29.0 | 0.00 | 0.00 | 0.00 | 37 | 1010.1 |
| 20260503205016 | 11 | 338 | 17.7 | 32.2 | 0.00 | 0.00 | 0.00 | 41 | 1010.0 |
| 20260503204533 | 11 | 5 | 20.9 | 32.2 | 0.00 | 0.00 | 0.00 | 39 | 1010.0 |
| 20260503204014 | 11 | 321 | 20.9 | 32.2 | 0.00 | 0.00 | 0.00 | 35 | 1010.1 |
| 20260503203514 | 11 | 333 | 20.9 | 30.6 | 0.00 | 0.00 | 0.00 | 37 | 1010.0 |
| 20260503203043 | 11 | 352 | 17.7 | 30.6 | 0.00 | 0.00 | 0.00 | 39 | 1010.1 |
| 20260503202516 | 11 | 331 | 19.3 | 29.0 | 0.00 | 0.00 | 0.00 | 40 | 1010.1 |
| 20260503202017 | 11 | 327 | 17.7 | 25.7 | 0.00 | 0.00 | 0.00 | 38 | 1010.1 |
| 20260503201535 | 11 | 5 | 16.1 | 33.8 | 0.00 | 0.00 | 0.00 | 42 | 1010.1 |
| 20260503201018 | 11 | 5 | 19.3 | 43.5 | 0.00 | 0.00 | 0.00 | 38 | 1010.1 |
| 20260503200514 | 11 | 31 | 24.1 | 43.5 | 0.00 | 0.00 | 0.00 | 41 | 1010.3 |
| 20260503200046 | 11 | 39 | 25.7 | 43.5 | 0.00 | 0.00 | 0.00 | 39 | 1010.4 |
| 20260503195515 | 11 | 20 | 22.5 | 35.4 | 0.00 | 0.00 | 0.00 | 44 | 1010.3 |
| 20260503195016 | 11 | 336 | 19.3 | 35.4 | 0.00 | 0.00 | 0.00 | 42 | 1010.4 |
| 20260503194530 | 10 | 321 | 17.7 | 33.8 | 0.00 | 0.00 | 0.00 | 38 | 1010.6 |
| 20260503194017 | 10 | 346 | 20.9 | 33.8 | 0.00 | 0.00 | 0.00 | 39 | 1010.8 |
| 20260503193515 | 10 | 340 | 24.1 | 32.2 | 0.00 | 0.00 | 0.00 | 43 | 1010.7 |
| 20260503193034 | 10 | 352 | 22.5 | 38.6 | 0.00 | 0.00 | 0.00 | 44 | 1010.9 |
| 20260503192514 | 10 | 25 | 27.4 | 38.6 | 0.00 | 0.00 | 0.00 | 41 | 1011.0 |
| 20260503192015 | 10 | 348 | 20.9 | 37.0 | 0.00 | 0.00 | 0.00 | 46 | 1010.9 |
| 20260503191537 | 10 | 350 | 24.1 | 41.8 | 0.00 | 0.00 | 0.00 | 42 | 1011.0 |
| 20260503191018 | 10 | 15 | 19.3 | 41.8 | 0.00 | 0.00 | 0.00 | 44 | 1011.1 |
| 20260503190516 | 10 | 346 | 27.4 | 41.8 | 0.00 | 0.00 | 0.00 | 42 | 1011.2 |
| 20260503190030 | 10 | 360 | 27.4 | 40.2 | 0.00 | 0.00 | 0.00 | 44 | 1011.1 |
| 20260503185516 | 10 | 13 | 25.7 | 40.2 | 0.00 | 0.00 | 0.00 | 44 | 1011.1 |
| 20260503185019 | 10 | 9 | 20.9 | 40.2 | 0.00 | 0.00 | 0.00 | 42 | 1011.1 |
| 20260503184541 | 10 | 22 | 20.9 | 33.8 | 0.00 | 0.00 | 0.00 | 47 | 1011.3 |
| 20260503184015 | 10 | 11 | 20.9 | 37.0 | 0.00 | 0.00 | 0.00 | 43 | 1011.3 |
| 20260503183516 | 9 | 42 | 22.5 | 37.0 | 0.00 | 0.00 | 0.00 | 43 | 1011.3 |
| 20260503183032 | 9 | 18 | 25.7 | 38.6 | 0.00 | 0.00 | 0.00 | 45 | 1011.5 |
| 20260503182515 | 9 | 23 | 27.4 | 38.6 | 0.00 | 0.00 | 0.00 | 42 | 1011.3 |
| 20260503182021 | 9 | 36 | 22.5 | 38.6 | 0.00 | 0.00 | 0.00 | 44 | 1011.4 |
| 20260503181538 | 9 | 32 | 25.7 | 40.2 | 0.00 | 0.00 | 0.00 | 44 | 1011.6 |
| 20260503181015 | 9 | 12 | 25.7 | 40.2 | 0.00 | 0.00 | 0.00 | 48 | 1011.7 |
| 20260503180515 | 8 | 40 | 25.7 | 40.2 | 0.00 | 0.00 | 0.00 | 44 | 1011.5 |
| 20260503180047 | 8 | 346 | 17.7 | 41.8 | 0.00 | 0.00 | 0.00 | 44 | 1011.6 |
| 20260503175514 | 8 | 351 | 24.1 | 41.8 | 0.00 | 0.00 | 0.00 | 45 | 1011.7 |
| 20260503175014 | 8 | 40 | 25.7 | 37.0 | 0.00 | 0.00 | 0.00 | 46 | 1011.8 |
| 20260503174543 | 8 | 349 | 19.3 | 29.0 | 0.00 | 0.00 | 0.00 | 51 | 1011.9 |
| 20260503174016 | 8 | 360 | 17.7 | 32.2 | 0.00 | 0.00 | 0.00 | 41 | 1011.8 |
| 20260503173516 | 8 | 352 | 22.5 | 33.8 | 0.00 | 0.00 | 0.00 | 43 | 1011.7 |
| 20260503173040 | 8 | 350 | 20.9 | 41.8 | 0.00 | 0.00 | 0.00 | 45 | 1011.8 |
| 20260503172515 | 8 | 336 | 20.9 | 43.5 | 0.00 | 0.00 | 0.00 | 43 | 1011.9 |
| 20260503172016 | 8 | 49 | 22.5 | 43.5 | 0.00 | 0.00 | 0.00 | 42 | 1011.8 |
| 20260503171534 | 8 | 19 | 24.1 | 43.5 | 0.00 | 0.00 | 0.00 | 48 | 1011.9 |
| 20260503171014 | 8 | 9 | 24.1 | 37.0 | 0.00 | 0.00 | 0.00 | 46 | 1011.8 |
| 20260503170519 | 8 | 19 | 25.7 | 35.4 | 0.00 | 0.00 | 0.00 | 45 | 1012.0 |
| 20260503151014 | 6 | 349 | 20.9 | 29.0 | 0.00 | 0.00 | 0.00 | 57 | 1012.8 |
| 20260503150517 | 6 | 44 | 19.3 | 29.0 | 0.00 | 0.00 | 0.00 | 55 | 1012.8 |